Regional Weather Roundup
Issued by NWS

Home | Current Version | Previous Version | Text Only | Print | Product List | Glossary On
Versions: 1 2 3 4 5 6 7 8 9 10 11 12 13 14 15 16 17 18 19 20 21 22 23 24 25 26 27 28 29 30 31 32 33 34 35 36 37 38 39 40 41 42 43 44 45 46 47 48 49 50
000
ASCA42 TJSJ 021310
RWRPR
PUERTO RICO/U.S. VIRGIN ISLANDS HOURLY WEATHER ROUNDUP
NATIONAL WEATHER SERVICE SAN JUAN PR
900 AM AST WED SEP 02 2015

PRZ001-004-021400-
PUERTO RICO

CITY           SKY/WX    TMP DP  RH WIND       PRES   REMARKS
SAN JUAN LMM   MOSUNNY   84  75  74 E5        30.03R HX  92
AGUADILLA      SUNNY     82  77  83 E7        30.04R HX  91
CEIBA          MOSUNNY   84  81  89 E5        30.05R HX  98
$$

PRZ006-007-021400-
U.S. VIRGIN ISLANDS

CITY           SKY/WX    TMP DP  RH WIND       PRES   REMARKS
CHARLOTTE AMA  MOSUNNY   86  79  79 SE10      30.03R HX  99
CHRISTIANSTED  MOSUNNY   86  77  74 SE9       30.04R HX  97
$$

HOURLY WEATHER ROUNDUP FOR THE NEWS MEDIA

CITY           SKY/WX    TMP DP  RH WIND       PRES   REMARKS
ORLANDO        SUNNY     82  78  88 S9        30.10R HX  91
NEW YORK       PTSUNNY   77  71  82 SW5       30.05S
NEWARK         PTSUNNY   76  71  85 VRB3      30.03S HAZE
CHICAGO        MOSUNNY   74  69  85 W6        30.06R
HARTFORD       PTSUNNY   71  69  93 SW8       30.01S
BOSTON         SUNNY     76  62  62 SW8       29.99F
DALLAS         SUNNY     75  68  78 S7        30.07R
PHILADELPHIA   PTSUNNY   77  71  82 SE5       30.04S HAZE
LOS ANGELES    CLOUDY    70  59  68 SE5       29.96R
WASHINGTON DC  PTSUNNY   77  67  71 NW3       30.07S


USA.gov is the U.S. government's official web portal to all federal, state and local government web resources and services.